TimeCDT,TemperatureF,Dew PointF,Humidity,Sea Level PressureIn,VisibilityMPH,Wind Direction,Wind SpeedMPH,Gust SpeedMPH,PrecipitationIn,Events,Conditions,WindDirDegrees,DateUTC
12:40 AM,71.6,69.8,94,29.95,7.0,Calm,Calm,-,N/A,,Partly Cloudy,0,2013-07-12 05:40:00
1:40 AM,71.6,69.8,94,29.95,7.0,Calm,Calm,-,N/A,,Partly Cloudy,0,2013-07-12 06:40:00
2:40 AM,71.6,69.8,94,29.93,7.0,Calm,Calm,-,N/A,,Partly Cloudy,0,2013-07-12 07:40:00
3:40 AM,69.8,68.0,94,29.95,7.0,Calm,Calm,-,N/A,,Partly Cloudy,0,2013-07-12 08:40:00
4:40 AM,69.8,68.0,94,29.92,7.0,Calm,Calm,-,N/A,,Partly Cloudy,0,2013-07-12 09:40:00
5:40 AM,69.8,68.0,94,29.92,7.0,Calm,Calm,-,N/A,,Partly Cloudy,0,2013-07-12 10:40:00
6:40 AM,69.8,68.0,94,29.90,7.0,Calm,Calm,-,N/A,,Scattered Clouds,0,2013-07-12 11:40:00
7:43 AM,75.2,75.2,100,29.93,8.0,Calm,Calm,-,N/A,,Mostly Cloudy,0,2013-07-12 12:43:00
8:42 AM,80.6,73.4,79,29.94,8.0,North,4.6,-,N/A,,Mostly Cloudy,360,2013-07-12 13:42:00
9:40 AM,78.8,75.2,89,29.99,8.0,North,5.8,-,N/A,,Mostly Cloudy,350,2013-07-12 14:40:00
10:40 AM,78.8,75.2,89,29.96,8.0,North,6.9,-,N/A,,Mostly Cloudy,350,2013-07-12 15:40:00
11:42 AM,80.6,75.2,84,29.96,8.0,NE,8.1,-,N/A,,Mostly Cloudy,50,2013-07-12 16:42:00
12:40 PM,84.2,75.2,74,29.94,8.0,NE,9.2,-,N/A,,Mostly Cloudy,50,2013-07-12 17:40:00
1:44 PM,84.2,75.2,74,29.93,8.0,ENE,10.4,-,N/A,,Mostly Cloudy,70,2013-07-12 18:44:00
2:40 PM,82.4,75.2,79,29.92,8.0,NE,10.4,-,N/A,,Mostly Cloudy,50,2013-07-12 19:40:00
3:40 PM,78.8,73.4,83,29.92,8.0,ENE,3.5,-,N/A,,Mostly Cloudy,60,2013-07-12 20:40:00
4:41 PM,78.8,75.2,89,29.89,7.0,NE,3.5,-,N/A,,Overcast,50,2013-07-12 21:41:00
5:49 PM,80.6,73.4,79,29.89,7.0,East,6.9,-,N/A,,Overcast,80,2013-07-12 22:49:00
6:41 PM,77.0,73.4,89,29.88,7.0,NE,3.5,-,N/A,,Mostly Cloudy,50,2013-07-12 23:41:00
7:48 PM,77.0,73.4,89,29.92,7.0,Calm,Calm,-,N/A,,Mostly Cloudy,0,2013-07-13 00:48:00
8:41 PM,75.2,73.4,94,29.93,7.0,East,3.5,-,N/A,,Scattered Clouds,80,2013-07-13 01:41:00
9:42 PM,75.2,73.4,94,29.97,7.0,Calm,Calm,-,N/A,,Scattered Clouds,0,2013-07-13 02:42:00
10:41 PM,75.2,73.4,94,29.95,7.0,Calm,Calm,-,N/A,,Mostly Cloudy,0,2013-07-13 03:41:00
11:44 PM,75.2,73.4,94,29.95,7.0,Calm,Calm,-,N/A,,Mostly Cloudy,0,2013-07-13 04:44:00